ENT9900 EPGD-EPKK

Flight info

Callsign ENT9900
Flight time 0h 53m
Altitude 35000
Route IRLUN DCT PENEX N133 POLON DCT KUKAM
Aircraft B738/M-SDE2E3FGHIRWXY/LB1

Departure

Time 2026-04-30 20:17
Airport Gdańsk Lech Wałęsa Airport (EPGD)

Arrival

Time 2026-04-30 21:11
Airport Kraków John Paul II International Airport (EPKK)
Time Latitude Longitude Altitude Speed Heading
2026-04-30 20:02 54.38115 18.46619 459 ft 0 kts 23°
2026-04-30 20:07 54.38111 18.46616 459 ft 3 kts 25°
2026-04-30 20:07 54.38085 18.46562 459 ft 3 kts 94°
2026-04-30 20:08 54.38089 18.46528 457 ft 1 kts 113°
2026-04-30 20:08 54.38089 18.46527 457 ft 0 kts 113°
2026-04-30 20:11 54.38010 18.46605 459 ft 6 kts 189°
2026-04-30 20:11 54.37964 18.46670 459 ft 13 kts 125°
2026-04-30 20:11 54.37891 18.46805 458 ft 15 kts 113°
2026-04-30 20:12 54.37750 18.47372 459 ft 33 kts 112°
2026-04-30 20:12 54.37691 18.47616 463 ft 17 kts 114°
2026-04-30 20:12 54.37636 18.47840 468 ft 24 kts 111°
2026-04-30 20:13 54.37566 18.48132 470 ft 29 kts 117°
2026-04-30 20:13 54.37487 18.48437 476 ft 21 kts 113°
2026-04-30 20:13 54.37427 18.48678 487 ft 22 kts 113°
2026-04-30 20:13 54.37372 18.48909 488 ft 14 kts 111°
2026-04-30 20:14 54.37325 18.49114 488 ft 22 kts 111°
2026-04-30 20:14 54.37257 18.49271 490 ft 12 kts 144°
2026-04-30 20:14 54.37218 18.49269 495 ft 6 kts 213°
2026-04-30 20:14 54.37215 18.49266 491 ft 0 kts 214°
2026-04-30 20:16 54.37215 18.49265 492 ft 0 kts 214°
2026-04-30 20:16 54.37194 18.49234 487 ft 11 kts 224°
2026-04-30 20:16 54.37161 18.49063 490 ft 20 kts 275°
2026-04-30 20:16 54.37239 18.48715 491 ft 61 kts 293°
2026-04-30 20:17 54.37520 18.47571 487 ft 143 kts 293°
2026-04-30 20:17 54.37944 18.45884 1237 ft 161 kts 293°
2026-04-30 20:17 54.38338 18.44053 2288 ft 166 kts 295°
2026-04-30 20:17 54.38833 18.42048 2750 ft 201 kts 297°
2026-04-30 20:18 54.39424 18.39740 3224 ft 218 kts 297°
2026-04-30 20:18 54.40029 18.37322 3976 ft 221 kts 297°
2026-04-30 20:18 54.40621 18.34911 4749 ft 223 kts 297°
2026-04-30 20:18 54.41221 18.32436 5496 ft 226 kts 297°
2026-04-30 20:19 54.41833 18.29905 6192 ft 232 kts 297°
2026-04-30 20:19 54.42243 18.28205 6667 ft 235 kts 297°
2026-04-30 20:19 54.42871 18.25582 7384 ft 239 kts 296°
2026-04-30 20:19 54.43015 18.21695 8343 ft 259 kts 259°
2026-04-30 20:20 54.42484 18.19822 8852 ft 271 kts 234°
2026-04-30 20:20 54.40958 18.17813 9724 ft 283 kts 207°
2026-04-30 20:20 54.39149 18.16433 10774 ft 286 kts 201°
2026-04-30 20:20 54.37266 18.15214 11756 ft 291 kts 192°
2026-04-30 20:21 54.35269 18.15165 12746 ft 287 kts 159°
2026-04-30 20:21 54.33456 18.16643 13386 ft 298 kts 135°
2026-04-30 20:21 54.31916 18.19215 13833 ft 319 kts 125°
2026-04-30 20:21 54.30383 18.22047 14733 ft 328 kts 125°
2026-04-30 20:22 54.28748 18.24835 15772 ft 339 kts 134°
2026-04-30 20:22 54.26676 18.26933 16828 ft 356 kts 150°
2026-04-30 20:22 54.24309 18.28367 17846 ft 365 kts 155°
2026-04-30 20:22 54.21863 18.29731 18811 ft 373 kts 155°
2026-04-30 20:23 54.19365 18.31099 19652 ft 380 kts 156°
2026-04-30 20:23 54.16834 18.32480 20561 ft 385 kts 155°
2026-04-30 20:23 54.14260 18.33891 21436 ft 391 kts 155°
2026-04-30 20:23 54.11649 18.35330 22324 ft 396 kts 155°
2026-04-30 20:24 54.09009 18.36791 23192 ft 401 kts 155°
2026-04-30 20:24 54.06335 18.38275 24023 ft 407 kts 155°
2026-04-30 20:24 54.03664 18.39759 24693 ft 412 kts 155°
2026-04-30 20:24 54.00922 18.41282 25408 ft 416 kts 155°
2026-04-30 20:25 53.95354 18.44370 26800 ft 425 kts 155°
2026-04-30 20:25 53.92524 18.45937 27465 ft 430 kts 155°
2026-04-30 20:26 53.86778 18.49113 28772 ft 439 kts 155°
2026-04-30 20:26 53.80907 18.52347 30024 ft 448 kts 155°
2026-04-30 20:26 53.77923 18.53987 30591 ft 452 kts 155°
2026-04-30 20:27 53.71877 18.57307 31269 ft 465 kts 155°
2026-04-30 20:27 53.65757 18.60644 31283 ft 454 kts 155°
2026-04-30 20:28 53.59794 18.63877 32237 ft 450 kts 155°
2026-04-30 20:28 53.53805 18.67142 33187 ft 454 kts 154°
2026-04-30 20:29 53.47811 18.70391 34152 ft 451 kts 154°
2026-04-30 20:30 53.38939 18.75179 35361 ft 448 kts 155°
2026-04-30 20:31 53.21045 18.84782 35372 ft 450 kts 154°
2026-04-30 20:32 53.06101 18.92735 35362 ft 450 kts 154°
2026-04-30 20:33 52.97192 18.97446 35366 ft 449 kts 154°
2026-04-30 20:34 52.88269 19.02146 35366 ft 448 kts 154°
2026-04-30 20:35 52.79343 19.06828 35367 ft 449 kts 154°
2026-04-30 20:35 52.70412 19.11492 35367 ft 449 kts 154°
2026-04-30 20:36 52.64448 19.14595 35376 ft 449 kts 154°
2026-04-30 20:37 52.55506 19.19232 35378 ft 449 kts 154°
2026-04-30 20:37 52.49535 19.22317 35378 ft 449 kts 154°
2026-04-30 20:38 52.43575 19.25387 35404 ft 450 kts 153°
2026-04-30 20:38 52.37589 19.28463 35386 ft 451 kts 153°
2026-04-30 20:39 52.28607 19.33060 35380 ft 450 kts 153°
2026-04-30 20:40 52.19680 19.37609 35380 ft 449 kts 153°
2026-04-30 20:40 52.13704 19.40645 35378 ft 449 kts 153°
2026-04-30 20:41 52.04752 19.45155 34742 ft 450 kts 153°
2026-04-30 20:41 52.01773 19.46647 34080 ft 444 kts 152°
2026-04-30 20:41 51.98853 19.48104 33553 ft 434 kts 152°
2026-04-30 20:42 51.96002 19.49525 33066 ft 424 kts 152°
2026-04-30 20:42 51.93213 19.50918 32584 ft 415 kts 152°
2026-04-30 20:42 51.87805 19.53628 31652 ft 400 kts 151°
2026-04-30 20:43 51.85169 19.54951 31195 ft 393 kts 150°
2026-04-30 20:43 51.82578 19.56250 30748 ft 387 kts 150°
2026-04-30 20:43 51.80025 19.57528 30288 ft 382 kts 150°
2026-04-30 20:44 51.74950 19.60079 29274 ft 386 kts 151°
2026-04-30 20:44 51.72373 19.61379 28786 ft 391 kts 151°
2026-04-30 20:44 51.67152 19.63986 27836 ft 393 kts 152°
2026-04-30 20:45 51.61933 19.66568 26913 ft 392 kts 152°
2026-04-30 20:45 51.59324 19.67856 26486 ft 392 kts 152°
2026-04-30 20:45 51.56715 19.69144 26049 ft 392 kts 152°
2026-04-30 20:46 51.48923 19.72983 25397 ft 390 kts 153°
2026-04-30 20:46 51.46362 19.74243 25389 ft 390 kts 153°
2026-04-30 20:47 51.41180 19.76789 25387 ft 390 kts 153°
2026-04-30 20:47 51.38580 19.78064 25394 ft 390 kts 153°
2026-04-30 20:48 51.33385 19.80606 25395 ft 390 kts 153°
2026-04-30 20:48 51.30791 19.81873 25398 ft 390 kts 153°
2026-04-30 20:48 51.28197 19.83138 25394 ft 390 kts 153°
2026-04-30 20:48 51.25602 19.84402 25385 ft 389 kts 153°
2026-04-30 20:49 51.22978 19.85516 25144 ft 395 kts 161°
2026-04-30 20:49 51.20237 19.86150 24895 ft 399 kts 164°
2026-04-30 20:49 51.17491 19.86684 24586 ft 397 kts 165°
2026-04-30 20:50 51.12030 19.87707 23711 ft 393 kts 165°
2026-04-30 20:50 51.09323 19.88234 23252 ft 390 kts 165°
2026-04-30 20:50 51.06637 19.88769 22817 ft 387 kts 165°
2026-04-30 20:50 51.03980 19.89307 22411 ft 383 kts 165°
2026-04-30 20:51 51.01378 19.89839 21999 ft 380 kts 165°
2026-04-30 20:51 50.96174 19.90911 21212 ft 374 kts 165°
2026-04-30 20:51 50.93605 19.91441 20811 ft 371 kts 165°
2026-04-30 20:52 50.91051 19.91968 20427 ft 368 kts 166°
2026-04-30 20:52 50.88510 19.92492 20032 ft 366 kts 166°
2026-04-30 20:52 50.83487 19.93526 19253 ft 362 kts 166°
2026-04-30 20:53 50.80997 19.94037 18872 ft 360 kts 166°
2026-04-30 20:53 50.78520 19.94545 18472 ft 358 kts 167°
2026-04-30 20:53 50.76086 19.95041 18390 ft 348 kts 167°
2026-04-30 20:54 50.71419 19.95985 18252 ft 327 kts 166°
2026-04-30 20:54 50.69196 19.96436 18122 ft 318 kts 166°
2026-04-30 20:54 50.67010 19.96883 17852 ft 316 kts 166°
2026-04-30 20:55 50.62656 19.97778 17232 ft 315 kts 167°
2026-04-30 20:55 50.60492 19.98221 16953 ft 313 kts 167°
2026-04-30 20:55 50.58346 19.98658 16682 ft 310 kts 167°
2026-04-30 20:56 50.54113 19.99517 16139 ft 307 kts 167°
2026-04-30 20:56 50.51979 19.99950 15885 ft 304 kts 168°
2026-04-30 20:56 50.47858 20.00782 15604 ft 294 kts 167°
2026-04-30 20:57 50.45828 20.01192 15468 ft 295 kts 167°
2026-04-30 20:57 50.43788 20.01606 15160 ft 296 kts 168°
2026-04-30 20:57 50.41736 20.02022 14834 ft 298 kts 168°
2026-04-30 20:58 50.37656 20.02843 14326 ft 293 kts 168°
2026-04-30 20:58 50.35628 20.03252 13877 ft 298 kts 168°
2026-04-30 20:58 50.33542 20.03673 13317 ft 305 kts 169°
2026-04-30 20:58 50.31420 20.04100 12765 ft 310 kts 169°
2026-04-30 20:59 50.27074 20.04971 11688 ft 318 kts 169°
2026-04-30 20:59 50.24914 20.05674 11151 ft 316 kts 153°
2026-04-30 21:00 50.22087 20.10419 10108 ft 299 kts 104°
2026-04-30 21:00 50.21981 20.16675 9017 ft 289 kts 75°
2026-04-30 21:01 50.22842 20.22816 7925 ft 289 kts 75°
2026-04-30 21:01 50.23194 20.25907 7374 ft 292 kts 85°
2026-04-30 21:01 50.21500 20.31630 6290 ft 307 kts 139°
2026-04-30 21:02 50.19585 20.33067 5739 ft 311 kts 168°
2026-04-30 21:02 50.17476 20.32867 5218 ft 310 kts 199°
2026-04-30 21:02 50.15681 20.31180 4675 ft 297 kts 222°
2026-04-30 21:02 50.14221 20.29072 4342 ft 272 kts 225°
2026-04-30 21:03 50.12945 20.27153 4270 ft 240 kts 226°
2026-04-30 21:03 50.11778 20.25397 4270 ft 232 kts 226°
2026-04-30 21:03 50.10628 20.23663 4279 ft 229 kts 226°
2026-04-30 21:03 50.09513 20.21904 4252 ft 228 kts 235°
2026-04-30 21:04 50.09100 20.20474 4245 ft 210 kts 265°
2026-04-30 21:04 50.09342 20.18477 4269 ft 173 kts 295°
2026-04-30 21:04 50.09921 20.15173 4252 ft 151 kts 284°
2026-04-30 21:05 50.10044 20.13538 4270 ft 153 kts 279°
2026-04-30 21:05 50.10075 20.11865 4277 ft 156 kts 274°
2026-04-30 21:05 50.10025 20.10172 4279 ft 158 kts 270°
2026-04-30 21:05 50.10004 20.08468 4291 ft 152 kts 278°
2026-04-30 21:06 50.10060 20.06803 4272 ft 154 kts 278°
2026-04-30 21:06 50.10123 20.05094 3950 ft 163 kts 277°
2026-04-30 21:06 50.10178 20.03376 3746 ft 155 kts 277°
2026-04-30 21:06 50.10228 20.01740 3616 ft 152 kts 277°
2026-04-30 21:07 50.10276 20.00099 3490 ft 155 kts 277°
2026-04-30 21:07 50.10324 19.98433 3343 ft 152 kts 277°
2026-04-30 21:07 50.10299 19.96764 3031 ft 158 kts 265°
2026-04-30 21:07 50.10095 19.95110 2816 ft 153 kts 261°
2026-04-30 21:08 50.09877 19.93552 2651 ft 147 kts 261°
2026-04-30 21:08 50.09656 19.91977 2414 ft 150 kts 261°
2026-04-30 21:08 50.09433 19.90386 2195 ft 149 kts 260°
2026-04-30 21:08 50.09213 19.88816 1973 ft 148 kts 259°
2026-04-30 21:09 50.09004 19.87325 1750 ft 134 kts 259°
2026-04-30 21:09 50.08814 19.85969 1584 ft 123 kts 258°
2026-04-30 21:09 50.08636 19.84690 1433 ft 122 kts 258°
2026-04-30 21:09 50.08454 19.83390 1266 ft 122 kts 258°
2026-04-30 21:10 50.08272 19.82113 1103 ft 119 kts 257°
2026-04-30 21:10 50.08094 19.80850 950 ft 120 kts 259°
2026-04-30 21:10 50.07924 19.79578 812 ft 118 kts 259°
2026-04-30 21:10 50.07773 19.78484 801 ft 85 kts 257°
2026-04-30 21:11 50.07681 19.77816 796 ft 42 kts 257°
2026-04-30 21:11 50.07651 19.77604 798 ft 0 kts 257°
2026-04-30 21:11 50.07648 19.77590 798 ft 9 kts 256°
2026-04-30 21:11 50.07622 19.77400 799 ft 22 kts 258°
2026-04-30 21:12 50.07608 19.77313 800 ft 13 kts 255°
2026-04-30 21:12 50.07583 19.77151 802 ft 20 kts 259°
2026-04-30 21:12 50.07553 19.76932 801 ft 16 kts 251°
2026-04-30 21:12 50.07508 19.76858 801 ft 9 kts 198°
2026-04-30 21:13 50.07445 19.76859 799 ft 9 kts 167°
2026-04-30 21:13 50.07403 19.76874 799 ft 2 kts 169°
2026-04-30 21:13 50.07377 19.76881 799 ft 6 kts 169°
2026-04-30 21:13 50.07325 19.76908 799 ft 9 kts 140°
2026-04-30 21:14 50.07314 19.77011 799 ft 11 kts 78°
2026-04-30 21:14 50.07334 19.77150 799 ft 15 kts 77°
2026-04-30 21:14 50.07359 19.77327 799 ft 15 kts 79°
2026-04-30 21:14 50.07384 19.77506 799 ft 19 kts 77°
2026-04-30 21:15 50.07413 19.77721 799 ft 22 kts 78°
2026-04-30 21:15 50.07433 19.77871 799 ft 14 kts 78°
2026-04-30 21:15 50.07453 19.78034 799 ft 17 kts 79°
2026-04-30 21:15 50.07481 19.78232 799 ft 20 kts 74°
2026-04-30 21:16 50.07513 19.78439 799 ft 17 kts 79°
2026-04-30 21:16 50.07542 19.78639 799 ft 20 kts 76°
2026-04-30 21:16 50.07574 19.78870 799 ft 23 kts 78°
2026-04-30 21:16 50.07607 19.79117 799 ft 21 kts 74°
2026-04-30 21:17 50.07641 19.79352 799 ft 24 kts 79°
2026-04-30 21:17 50.07668 19.79546 799 ft 14 kts 75°
2026-04-30 21:17 50.07679 19.79692 799 ft 13 kts 76°
2026-04-30 21:17 50.07695 19.79829 799 ft 13 kts 108°
2026-04-30 21:18 50.07617 19.79898 799 ft 13 kts 162°
2026-04-30 21:18 50.07528 19.79929 799 ft 10 kts 143°
2026-04-30 21:18 50.07512 19.80017 799 ft 9 kts 72°
2026-04-30 21:18 50.07496 19.80068 799 ft 6 kts 155°
2026-04-30 21:19 50.07470 19.80078 799 ft 0 kts 166°